Year,Month,Day,Hour,Minute,Value (Times are PST for temperature in C)
2015,11,25,00,00,-1.90
2015,11,25,00,01,-1.90
2015,11,25,00,02,-2.00
2015,11,25,00,03,-1.90
2015,11,25,00,04,-2.00
2015,11,25,00,07,-2.00
2015,11,25,00,08,-2.00
2015,11,25,00,09,-2.00
2015,11,25,00,10,-2.10
2015,11,25,00,11,-2.10
2015,11,25,00,12,-2.10
2015,11,25,00,14,-2.10
2015,11,25,00,15,-2.10
2015,11,25,00,16,-2.10
2015,11,25,00,17,-2.10
2015,11,25,00,19,-2.10
2015,11,25,00,20,-2.10
2015,11,25,00,21,-2.10
2015,11,25,00,22,-2.10
2015,11,25,00,23,-2.10
2015,11,25,00,24,-2.20
2015,11,25,00,25,-2.20
2015,11,25,00,26,-2.20
2015,11,25,00,27,-2.20
2015,11,25,00,28,-2.20
2015,11,25,00,29,-2.20
2015,11,25,00,30,-2.20
2015,11,25,00,31,-2.20
2015,11,25,00,32,-2.20
2015,11,25,00,33,-2.20
2015,11,25,00,34,-2.10
2015,11,25,00,35,-2.10
2015,11,25,00,36,-2.10
2015,11,25,00,37,-2.10
2015,11,25,00,38,-2.10
2015,11,25,00,39,-2.10
2015,11,25,00,40,-2.10
2015,11,25,00,41,-2.10
2015,11,25,00,42,-2.10
2015,11,25,00,43,-2.10
2015,11,25,00,44,-2.20
2015,11,25,00,45,-2.20
2015,11,25,00,46,-2.20
2015,11,25,00,48,-2.20
2015,11,25,00,49,-2.20
2015,11,25,00,50,-2.20
2015,11,25,00,51,-2.20
2015,11,25,00,52,-2.20
2015,11,25,00,53,-2.20
2015,11,25,00,54,-2.20
2015,11,25,00,55,-2.20
2015,11,25,00,56,-2.20
2015,11,25,00,57,-2.20
2015,11,25,00,58,-2.20
2015,11,25,00,59,-2.20
2015,11,25,01,00,-2.20
2015,11,25,01,01,-2.30
2015,11,25,01,03,-2.30
2015,11,25,01,05,-2.30
2015,11,25,01,06,-2.30
2015,11,25,01,08,-2.30
2015,11,25,01,09,-2.30
2015,11,25,01,10,-2.30
2015,11,25,01,11,-2.30
2015,11,25,01,12,-2.30
2015,11,25,01,13,-2.40
2015,11,25,01,14,-2.40
2015,11,25,01,15,-2.40
2015,11,25,01,16,-2.40
2015,11,25,01,17,-2.40
2015,11,25,01,18,-2.40
2015,11,25,01,19,-2.40
2015,11,25,01,20,-2.50
2015,11,25,01,21,-2.50
2015,11,25,01,22,-2.50
2015,11,25,01,23,-2.50
2015,11,25,01,24,-2.50
2015,11,25,01,25,-2.60
2015,11,25,01,26,-2.60
2015,11,25,01,27,-2.60
2015,11,25,01,28,-2.60
2015,11,25,01,30,-2.60
2015,11,25,01,31,-2.60
2015,11,25,01,32,-2.60
2015,11,25,01,33,-2.60
2015,11,25,01,34,-2.60
2015,11,25,01,35,-2.60
2015,11,25,01,36,-2.60
2015,11,25,01,37,-2.60
2015,11,25,01,38,-2.60
2015,11,25,01,39,-2.60
2015,11,25,01,40,-2.60
2015,11,25,01,41,-2.70
2015,11,25,01,42,-2.70
2015,11,25,01,43,-2.60
2015,11,25,01,44,-2.60
2015,11,25,01,45,-2.60
2015,11,25,01,46,-2.60
2015,11,25,01,47,-2.60
2015,11,25,01,50,-2.60
2015,11,25,01,51,-2.60
2015,11,25,01,52,-2.60
2015,11,25,01,53,-2.60
2015,11,25,01,54,-2.60
2015,11,25,01,55,-2.60
2015,11,25,01,57,-2.60
2015,11,25,01,58,-2.60
2015,11,25,01,59,-2.60
2015,11,25,02,00,-2.60
2015,11,25,02,01,-2.60
2015,11,25,02,02,-2.60
2015,11,25,02,03,-2.70
2015,11,25,02,04,-2.70
2015,11,25,02,06,-2.70
2015,11,25,02,07,-2.70
2015,11,25,02,08,-2.70
2015,11,25,02,11,-2.70
2015,11,25,02,12,-2.70
2015,11,25,02,13,-2.80
2015,11,25,02,14,-2.80
2015,11,25,02,15,-2.80
2015,11,25,02,16,-2.80
2015,11,25,02,17,-2.80
2015,11,25,02,18,-2.80
2015,11,25,02,19,-2.80
2015,11,25,02,20,-2.90
2015,11,25,02,21,-2.90
2015,11,25,02,22,-2.90
2015,11,25,02,23,-2.90
2015,11,25,02,24,-2.90
2015,11,25,02,25,-2.90
2015,11,25,02,26,-2.90
2015,11,25,02,27,-2.90
2015,11,25,02,28,-2.90
2015,11,25,02,29,-2.90
2015,11,25,02,32,-2.90
2015,11,25,02,33,-2.90
2015,11,25,02,34,-2.90
2015,11,25,02,35,-2.90
2015,11,25,02,36,-2.90
2015,11,25,02,37,-3.00
2015,11,25,02,38,-3.00
2015,11,25,02,39,-3.00
2015,11,25,02,40,-3.00
2015,11,25,02,41,-3.10
2015,11,25,02,42,-3.10
2015,11,25,02,43,-3.10
2015,11,25,02,45,-3.10
2015,11,25,02,46,-3.10
2015,11,25,02,47,-3.10
2015,11,25,02,48,-3.10
2015,11,25,02,49,-3.10
2015,11,25,02,51,-3.10
2015,11,25,02,52,-3.10
2015,11,25,02,54,-3.10
2015,11,25,02,55,-3.10
2015,11,25,02,56,-3.10
2015,11,25,02,57,-3.10
2015,11,25,02,58,-3.10
2015,11,25,02,59,-3.10
2015,11,25,03,00,-3.10
2015,11,25,03,02,-3.10
2015,11,25,03,03,-3.10
2015,11,25,03,04,-3.10
2015,11,25,03,06,-3.10
2015,11,25,03,07,-3.10
2015,11,25,03,08,-3.10
2015,11,25,03,09,-3.10
2015,11,25,03,10,-3.00
2015,11,25,03,11,-3.00
2015,11,25,03,12,-3.00
2015,11,25,03,13,-2.90
2015,11,25,03,14,-3.00
2015,11,25,03,15,-3.00
2015,11,25,03,16,-2.90
2015,11,25,03,17,-2.90
2015,11,25,03,18,-2.90
2015,11,25,03,19,-2.90
2015,11,25,03,20,-2.90
2015,11,25,03,21,-2.90
2015,11,25,03,22,-2.90
2015,11,25,03,23,-2.90
2015,11,25,03,24,-2.90
2015,11,25,03,25,-2.90
2015,11,25,03,26,-2.90
2015,11,25,03,27,-2.90
2015,11,25,03,28,-2.90
2015,11,25,03,29,-2.90
2015,11,25,03,30,-2.90
2015,11,25,03,31,-2.90
2015,11,25,03,32,-2.90
2015,11,25,03,33,-2.90
2015,11,25,03,34,-2.90
2015,11,25,03,35,-2.90
2015,11,25,03,36,-2.90
2015,11,25,03,37,-2.90
2015,11,25,03,38,-2.90
2015,11,25,03,39,-2.90
2015,11,25,03,40,-2.90
2015,11,25,03,41,-3.00
2015,11,25,03,42,-3.00
2015,11,25,03,43,-3.00
2015,11,25,03,44,-3.00
2015,11,25,03,45,-3.00
2015,11,25,03,46,-3.00
2015,11,25,03,47,-3.00
2015,11,25,03,48,-3.00
2015,11,25,03,49,-2.90
2015,11,25,03,50,-2.90
2015,11,25,03,52,-2.90
2015,11,25,03,53,-2.90
2015,11,25,03,54,-2.90
2015,11,25,03,55,-2.90
2015,11,25,03,56,-2.90
2015,11,25,03,57,-2.90
2015,11,25,03,58,-2.90
2015,11,25,03,59,-2.90
2015,11,25,04,00,-2.90
2015,11,25,04,01,-2.90
2015,11,25,04,02,-2.90
2015,11,25,04,03,-3.00
2015,11,25,04,04,-3.00
2015,11,25,04,05,-2.90
2015,11,25,04,06,-2.90
2015,11,25,04,07,-2.90
2015,11,25,04,08,-2.90
2015,11,25,04,09,-2.90
2015,11,25,04,10,-2.90
2015,11,25,04,11,-2.80
2015,11,25,04,13,-2.90
2015,11,25,04,14,-2.90
2015,11,25,04,15,-2.90
2015,11,25,04,16,-3.00
2015,11,25,04,17,-3.00
2015,11,25,04,18,-3.10
2015,11,25,04,20,-3.10
2015,11,25,04,21,-3.10
2015,11,25,04,22,-3.10
2015,11,25,04,23,-3.10
2015,11,25,04,24,-3.10
2015,11,25,04,25,-3.10
2015,11,25,04,26,-3.10
2015,11,25,04,27,-3.10
2015,11,25,04,28,-3.10
2015,11,25,04,29,-3.10
2015,11,25,04,30,-3.10
2015,11,25,04,31,-3.10
2015,11,25,04,33,-3.10
2015,11,25,04,34,-3.10
2015,11,25,04,35,-3.10
2015,11,25,04,36,-3.10
2015,11,25,04,37,-3.00
2015,11,25,04,38,-3.00
2015,11,25,04,39,-3.00
2015,11,25,04,40,-3.00
2015,11,25,04,41,-3.00
2015,11,25,04,42,-3.00
2015,11,25,04,43,-3.00
2015,11,25,04,44,-3.00
2015,11,25,04,45,-3.10
2015,11,25,04,46,-3.10
2015,11,25,04,48,-3.10
2015,11,25,04,49,-3.10
2015,11,25,04,50,-3.10
2015,11,25,04,51,-3.10
2015,11,25,04,54,-3.10
2015,11,25,04,55,-3.20
2015,11,25,04,56,-3.20
2015,11,25,04,57,-3.20
2015,11,25,04,58,-3.20
2015,11,25,04,59,-3.30
2015,11,25,05,00,-3.30
2015,11,25,05,02,-3.30
2015,11,25,05,03,-3.30
2015,11,25,05,04,-3.40
2015,11,25,05,05,-3.40
2015,11,25,05,06,-3.40
2015,11,25,05,07,-3.40
2015,11,25,05,08,-3.40
2015,11,25,05,09,-3.40
2015,11,25,05,10,-3.40
2015,11,25,05,11,-3.40
2015,11,25,05,13,-3.40
2015,11,25,05,14,-3.40
2015,11,25,05,15,-3.40
2015,11,25,05,16,-3.40
2015,11,25,05,17,-3.50
2015,11,25,05,18,-3.40
2015,11,25,05,19,-3.50
2015,11,25,05,20,-3.50
2015,11,25,05,21,-3.50
2015,11,25,05,22,-3.50
2015,11,25,05,23,-3.50
2015,11,25,05,24,-3.50
2015,11,25,05,25,-3.50
2015,11,25,05,26,-3.50
2015,11,25,05,27,-3.50
2015,11,25,05,28,-3.60
2015,11,25,05,29,-3.60
2015,11,25,05,30,-3.60
2015,11,25,05,31,-3.60
2015,11,25,05,33,-3.60
2015,11,25,05,34,-3.60
2015,11,25,05,35,-3.60
2015,11,25,05,36,-3.60
2015,11,25,05,37,-3.60
2015,11,25,05,38,-3.60
2015,11,25,05,39,-3.60
2015,11,25,05,40,-3.60
2015,11,25,05,41,-3.60
2015,11,25,05,42,-3.60
2015,11,25,05,43,-3.60
2015,11,25,05,44,-3.60
2015,11,25,05,45,-3.70
2015,11,25,05,46,-3.60
2015,11,25,05,47,-3.60
2015,11,25,05,48,-3.60
2015,11,25,05,49,-3.60
2015,11,25,05,50,-3.60
2015,11,25,05,51,-3.70
2015,11,25,05,52,-3.70
2015,11,25,05,54,-3.70
2015,11,25,05,55,-3.70
2015,11,25,05,56,-3.70
2015,11,25,05,57,-3.70
2015,11,25,05,58,-3.70
2015,11,25,05,59,-3.70
2015,11,25,06,00,-3.70
2015,11,25,06,01,-3.70
2015,11,25,06,02,-3.70
2015,11,25,06,03,-3.70
2015,11,25,06,04,-3.70
2015,11,25,06,05,-3.70
2015,11,25,06,06,-3.70
2015,11,25,06,07,-3.70
2015,11,25,06,08,-3.70
2015,11,25,06,09,-3.70
2015,11,25,06,10,-3.60
2015,11,25,06,11,-3.60
2015,11,25,06,12,-3.60
2015,11,25,06,13,-3.50
2015,11,25,06,14,-3.50
2015,11,25,06,15,-3.40
2015,11,25,06,16,-3.40
2015,11,25,06,17,-3.40
2015,11,25,06,18,-3.40
2015,11,25,06,19,-3.40
2015,11,25,06,20,-3.40
2015,11,25,06,21,-3.40
2015,11,25,06,22,-3.30
2015,11,25,06,23,-3.40
2015,11,25,06,24,-3.30
2015,11,25,06,25,-3.30
2015,11,25,06,26,-3.40
2015,11,25,06,27,-3.30
2015,11,25,06,28,-3.40
2015,11,25,06,29,-3.40
2015,11,25,06,30,-3.40
2015,11,25,06,31,-3.40
2015,11,25,06,32,-3.40
2015,11,25,06,33,-3.40
2015,11,25,06,34,-3.40
2015,11,25,06,35,-3.40
2015,11,25,06,36,-3.40
2015,11,25,06,37,-3.50
2015,11,25,06,38,-3.50
2015,11,25,06,39,-3.60
2015,11,25,06,40,-3.60
2015,11,25,06,42,-3.70
2015,11,25,06,43,-3.70
2015,11,25,06,44,-3.70
2015,11,25,06,45,-3.70
2015,11,25,06,46,-3.70
2015,11,25,06,47,-3.70
2015,11,25,06,48,-3.70
2015,11,25,06,49,-3.70
2015,11,25,06,50,-3.80
2015,11,25,06,51,-3.80
2015,11,25,06,52,-3.80
2015,11,25,06,53,-3.80
2015,11,25,06,54,-3.80
2015,11,25,06,55,-3.80
2015,11,25,06,56,-3.80
2015,11,25,06,57,-3.80
2015,11,25,06,59,-3.80
2015,11,25,07,00,-3.80
2015,11,25,07,01,-3.80
2015,11,25,07,02,-3.80
2015,11,25,07,03,-3.80
2015,11,25,07,04,-3.80
2015,11,25,07,05,-3.80
2015,11,25,07,06,-3.80
2015,11,25,07,07,-3.80
2015,11,25,07,08,-3.80
2015,11,25,07,09,-3.80
2015,11,25,07,10,-3.80
2015,11,25,07,11,-3.90
2015,11,25,07,12,-3.90
2015,11,25,07,13,-3.90
2015,11,25,07,14,-3.80
2015,11,25,07,17,-3.90
2015,11,25,07,18,-3.80
2015,11,25,07,19,-3.80
2015,11,25,07,20,-3.80
2015,11,25,07,21,-3.80
2015,11,25,07,22,-3.80
2015,11,25,07,23,-3.80
2015,11,25,07,24,-3.80
2015,11,25,07,25,-3.80
2015,11,25,07,26,-3.80
2015,11,25,07,27,-3.80
2015,11,25,07,28,-3.80
2015,11,25,07,29,-3.80
2015,11,25,07,30,-3.80
2015,11,25,07,31,-3.80
2015,11,25,07,32,-3.80
2015,11,25,07,33,-3.80
2015,11,25,07,34,-3.80
2015,11,25,07,37,-3.90
2015,11,25,07,38,-3.90
2015,11,25,07,41,-3.90
2015,11,25,07,43,-3.90
2015,11,25,07,44,-3.90
2015,11,25,07,45,-3.80
2015,11,25,07,46,-3.80
2015,11,25,07,47,-3.80
2015,11,25,07,48,-3.80
2015,11,25,07,49,-3.80
2015,11,25,07,50,-3.80
2015,11,25,07,51,-3.80
2015,11,25,07,52,-3.80
2015,11,25,07,53,-3.80
2015,11,25,07,54,-3.80
2015,11,25,07,55,-3.80
2015,11,25,07,56,-3.80
2015,11,25,07,57,-3.80
2015,11,25,07,58,-3.80
2015,11,25,07,59,-3.80
2015,11,25,08,00,-3.80
2015,11,25,08,02,-3.70
2015,11,25,08,03,-3.80
2015,11,25,08,04,-3.70
2015,11,25,08,05,-3.70
2015,11,25,08,06,-3.70
2015,11,25,08,07,-3.80
2015,11,25,08,08,-3.80
2015,11,25,08,09,-3.80
2015,11,25,08,10,-3.80
2015,11,25,08,11,-3.80
2015,11,25,08,12,-3.80
2015,11,25,08,13,-3.80
2015,11,25,08,16,-3.80
2015,11,25,08,17,-3.90
2015,11,25,08,18,-3.90
2015,11,25,08,19,-3.90
2015,11,25,08,20,-3.90
2015,11,25,08,21,-3.90
2015,11,25,08,22,-3.90
2015,11,25,08,23,-3.90
2015,11,25,08,24,-3.90
2015,11,25,08,25,-3.90
2015,11,25,08,26,-3.90
2015,11,25,08,27,-3.80
2015,11,25,08,28,-3.80
2015,11,25,08,29,-3.80
2015,11,25,08,30,-3.80
2015,11,25,08,31,-3.80
2015,11,25,08,32,-3.80
2015,11,25,08,33,-3.80
2015,11,25,08,34,-3.80
2015,11,25,08,35,-3.80
2015,11,25,08,36,-3.80
2015,11,25,08,37,-3.70
2015,11,25,08,38,-3.70
2015,11,25,08,39,-3.70
2015,11,25,08,40,-3.70
2015,11,25,08,41,-3.60
2015,11,25,08,42,-3.60
2015,11,25,08,43,-3.60
2015,11,25,08,44,-3.60
2015,11,25,08,45,-3.50
2015,11,25,08,46,-3.50
2015,11,25,08,47,-3.40
2015,11,25,08,48,-3.40
2015,11,25,08,49,-3.40
2015,11,25,08,50,-3.30
2015,11,25,08,51,-3.30
2015,11,25,08,52,-3.30
2015,11,25,08,53,-3.30
2015,11,25,08,54,-3.20
2015,11,25,08,55,-3.20
2015,11,25,08,57,-3.10
2015,11,25,08,59,-3.10
2015,11,25,09,00,-3.00
2015,11,25,09,01,-2.90
2015,11,25,09,02,-2.90
2015,11,25,09,03,-2.80
2015,11,25,09,04,-2.80
2015,11,25,09,05,-2.70
2015,11,25,09,06,-2.70
2015,11,25,09,07,-2.70
2015,11,25,09,08,-2.60
2015,11,25,09,09,-2.60
2015,11,25,09,10,-2.60
2015,11,25,09,11,-2.50
2015,11,25,09,12,-2.40
2015,11,25,09,13,-2.40
2015,11,25,09,14,-2.40
2015,11,25,09,15,-2.30
2015,11,25,09,16,-2.30
2015,11,25,09,17,-2.30
2015,11,25,09,18,-2.20
2015,11,25,09,19,-2.20
2015,11,25,09,20,-2.10
2015,11,25,09,21,-2.00
2015,11,25,09,22,-1.90
2015,11,25,09,23,-1.90
2015,11,25,09,24,-1.80
2015,11,25,09,25,-1.70
2015,11,25,09,26,-1.60
2015,11,25,09,27,-1.60
2015,11,25,09,28,-1.50
2015,11,25,09,29,-1.40
2015,11,25,09,30,-1.40
2015,11,25,09,31,-1.30
2015,11,25,09,32,-1.20
2015,11,25,09,33,-1.10
2015,11,25,09,34,-1.10
2015,11,25,09,35,-1.00
2015,11,25,09,37,-0.90
2015,11,25,09,38,-0.80
2015,11,25,09,39,-0.80
2015,11,25,09,40,-0.80
2015,11,25,09,41,-0.80
2015,11,25,09,42,-0.80
2015,11,25,09,43,-0.80
2015,11,25,09,44,-0.70
2015,11,25,09,45,-0.70
2015,11,25,09,46,-0.60
2015,11,25,09,47,-0.60
2015,11,25,09,48,-0.50
2015,11,25,09,49,-0.40
2015,11,25,09,52,-0.30
2015,11,25,09,53,-0.20
2015,11,25,09,54,-0.20
2015,11,25,09,55,-0.10
2015,11,25,09,57,0.00
2015,11,25,09,58,0.10
2015,11,25,09,59,0.10
2015,11,25,10,00,0.20
2015,11,25,10,01,0.20
2015,11,25,10,02,0.20
2015,11,25,10,03,0.30
2015,11,25,10,04,0.30
2015,11,25,10,05,0.40
2015,11,25,10,06,0.50
2015,11,25,10,07,0.60
2015,11,25,10,08,0.70
2015,11,25,10,09,0.70
2015,11,25,10,10,0.70
2015,11,25,10,11,0.70
2015,11,25,10,12,0.80
2015,11,25,10,14,0.80
2015,11,25,10,15,0.80
2015,11,25,10,16,0.80
2015,11,25,10,17,0.90
2015,11,25,10,19,0.90
2015,11,25,10,20,1.00
2015,11,25,10,21,1.10
2015,11,25,10,22,1.10
2015,11,25,10,23,1.20
2015,11,25,10,24,1.20
2015,11,25,10,25,1.20
2015,11,25,10,26,1.30
2015,11,25,10,27,1.30
2015,11,25,10,28,1.30
2015,11,25,10,29,1.40
2015,11,25,10,30,1.40
2015,11,25,10,31,1.40
2015,11,25,10,32,1.50
2015,11,25,10,33,1.50
2015,11,25,10,36,1.60
2015,11,25,10,38,1.70
2015,11,25,10,39,1.70
2015,11,25,10,40,1.70
2015,11,25,10,41,1.80
2015,11,25,10,42,1.80
2015,11,25,10,43,1.80
2015,11,25,10,44,1.90
2015,11,25,10,45,1.90
2015,11,25,10,46,1.90
2015,11,25,10,48,1.90
2015,11,25,10,50,2.00
2015,11,25,10,51,2.00
2015,11,25,10,52,2.10
2015,11,25,10,53,2.10
2015,11,25,10,54,2.10
2015,11,25,10,55,2.10
2015,11,25,10,56,2.10
2015,11,25,10,57,2.20
2015,11,25,10,58,2.20
2015,11,25,11,01,2.40
2015,11,25,11,02,2.40
2015,11,25,11,03,2.50
2015,11,25,11,04,2.50
2015,11,25,11,05,2.50
2015,11,25,11,06,2.50
2015,11,25,11,07,2.50
2015,11,25,11,08,2.50
2015,11,25,11,09,2.60
2015,11,25,11,10,2.60
2015,11,25,11,11,2.70
2015,11,25,11,13,2.70
2015,11,25,11,14,2.70
2015,11,25,11,15,2.70
2015,11,25,11,16,2.70
2015,11,25,11,17,2.80
2015,11,25,11,18,2.80
2015,11,25,11,19,2.90
2015,11,25,11,20,3.00
2015,11,25,11,21,3.10
2015,11,25,11,22,3.20
2015,11,25,11,23,3.30
2015,11,25,11,24,3.30
2015,11,25,11,25,3.40
2015,11,25,11,26,3.40
2015,11,25,11,27,3.50
2015,11,25,11,28,3.60
2015,11,25,11,29,3.60
2015,11,25,11,30,3.60
2015,11,25,11,31,3.60
2015,11,25,11,32,3.60
2015,11,25,11,33,3.60
2015,11,25,11,34,3.60
2015,11,25,11,35,3.50
2015,11,25,11,36,3.50
2015,11,25,11,37,3.50
2015,11,25,11,38,3.50
2015,11,25,11,40,3.50
2015,11,25,11,41,3.50
2015,11,25,11,42,3.60
2015,11,25,11,44,3.60
2015,11,25,11,45,3.70
2015,11,25,11,46,3.70
2015,11,25,11,47,3.70
2015,11,25,11,48,3.80
2015,11,25,11,49,3.90
2015,11,25,11,50,3.90
2015,11,25,11,51,4.00
2015,11,25,11,52,4.00
2015,11,25,11,53,4.10
2015,11,25,11,54,4.10
2015,11,25,11,55,4.10
2015,11,25,11,56,4.10
2015,11,25,11,57,4.20
2015,11,25,11,59,4.20
2015,11,25,12,00,4.30
2015,11,25,12,01,4.30
2015,11,25,12,02,4.30
2015,11,25,12,03,4.30
2015,11,25,12,04,4.30
2015,11,25,12,05,4.40
2015,11,25,12,06,4.50
2015,11,25,12,07,4.50
2015,11,25,12,08,4.60
2015,11,25,12,09,4.60
2015,11,25,12,10,4.70
2015,11,25,12,11,4.70
2015,11,25,12,12,4.70
2015,11,25,12,13,4.70
2015,11,25,12,14,4.80
2015,11,25,12,15,4.80
2015,11,25,12,16,4.80
2015,11,25,12,17,4.80
2015,11,25,12,18,4.80
2015,11,25,12,20,4.90
2015,11,25,12,21,4.90
2015,11,25,12,22,5.00
2015,11,25,12,23,5.10
2015,11,25,12,24,5.10
2015,11,25,12,25,5.20
2015,11,25,12,26,5.20
2015,11,25,12,27,5.30
2015,11,25,12,28,5.30
2015,11,25,12,29,5.40
2015,11,25,12,30,5.40
2015,11,25,12,31,5.50
2015,11,25,12,32,5.60
2015,11,25,12,33,5.60
2015,11,25,12,34,5.60
2015,11,25,12,35,5.60
2015,11,25,12,36,5.60
2015,11,25,12,37,5.60
2015,11,25,12,38,5.60
2015,11,25,12,40,5.60
2015,11,25,12,41,5.60
2015,11,25,12,42,5.60
2015,11,25,12,43,5.60
2015,11,25,12,44,5.70
2015,11,25,12,45,5.70
2015,11,25,12,46,5.70
2015,11,25,12,47,5.70
2015,11,25,12,48,5.80
2015,11,25,12,49,5.80
2015,11,25,12,50,5.80
2015,11,25,12,51,5.80
2015,11,25,12,52,5.80
2015,11,25,12,53,5.90
2015,11,25,12,54,5.80
2015,11,25,12,55,5.80
2015,11,25,12,56,5.80
2015,11,25,12,59,5.80
2015,11,25,13,00,5.80
2015,11,25,13,01,5.80
2015,11,25,13,02,5.80
2015,11,25,13,03,5.80
2015,11,25,13,04,5.80
2015,11,25,13,05,5.80
2015,11,25,13,06,5.80
2015,11,25,13,07,5.80
2015,11,25,13,08,5.80
2015,11,25,13,10,5.80
2015,11,25,13,11,5.80
2015,11,25,13,12,5.90
2015,11,25,13,13,5.90
2015,11,25,13,14,5.90
2015,11,25,13,15,5.90
2015,11,25,13,16,6.00
2015,11,25,13,17,6.10
2015,11,25,13,20,6.20
2015,11,25,13,21,6.20
2015,11,25,13,22,6.20
2015,11,25,13,23,6.30
2015,11,25,13,24,6.30
2015,11,25,13,25,6.30
2015,11,25,13,26,6.40
2015,11,25,13,27,6.40
2015,11,25,13,28,6.40
2015,11,25,13,29,6.40
2015,11,25,13,30,6.40
2015,11,25,13,31,6.40
2015,11,25,13,32,6.40
2015,11,25,13,33,6.40
2015,11,25,13,34,6.40
2015,11,25,13,35,6.40
2015,11,25,13,36,6.50
2015,11,25,13,37,6.50
2015,11,25,13,38,6.60
2015,11,25,13,40,6.70
2015,11,25,13,41,6.70
2015,11,25,13,42,6.70
2015,11,25,13,43,6.80
2015,11,25,13,44,6.80
2015,11,25,13,45,6.90
2015,11,25,13,46,6.90
2015,11,25,13,47,6.90
2015,11,25,13,48,6.90
2015,11,25,13,49,6.90
2015,11,25,13,50,6.90
2015,11,25,13,51,7.00
2015,11,25,13,52,7.00
2015,11,25,13,53,7.10
2015,11,25,13,54,7.10
2015,11,25,13,55,7.20
2015,11,25,13,56,7.20
2015,11,25,13,58,7.30
2015,11,25,13,59,7.40
2015,11,25,14,00,7.40
2015,11,25,14,01,7.50
2015,11,25,14,02,7.50
2015,11,25,14,04,7.60
2015,11,25,14,05,7.70
2015,11,25,14,06,7.70
2015,11,25,14,07,7.70
2015,11,25,14,08,7.70
2015,11,25,14,09,7.70
2015,11,25,14,10,7.70
2015,11,25,14,11,7.70
2015,11,25,14,12,7.70
2015,11,25,14,13,7.70
2015,11,25,14,14,7.70
2015,11,25,14,15,7.80
2015,11,25,14,16,7.80
2015,11,25,14,18,7.90
2015,11,25,14,19,7.90
2015,11,25,14,20,7.90
2015,11,25,14,21,8.00
2015,11,25,14,22,8.00
2015,11,25,14,23,8.00
2015,11,25,14,24,8.00
2015,11,25,14,25,8.10
2015,11,25,14,26,8.10
2015,11,25,14,27,8.10
2015,11,25,14,28,8.10
2015,11,25,14,29,8.10
2015,11,25,14,30,8.10
2015,11,25,14,31,8.10
2015,11,25,14,32,8.20
2015,11,25,14,33,8.20
2015,11,25,14,34,8.20
2015,11,25,14,35,8.20
2015,11,25,14,37,8.20
2015,11,25,14,38,8.20
2015,11,25,14,39,8.20
2015,11,25,14,40,8.20
2015,11,25,14,41,8.20
2015,11,25,14,42,8.20
2015,11,25,14,43,8.20
2015,11,25,14,44,8.20
2015,11,25,14,45,8.20
2015,11,25,14,46,8.20
2015,11,25,14,47,8.20
2015,11,25,14,48,8.20
2015,11,25,14,49,8.20
2015,11,25,14,50,8.20
2015,11,25,14,51,8.20
2015,11,25,14,52,8.20
2015,11,25,14,53,8.20
2015,11,25,14,54,8.20
2015,11,25,14,55,8.20
2015,11,25,14,56,8.20
2015,11,25,14,58,8.20
2015,11,25,14,59,8.20
2015,11,25,15,00,8.20
2015,11,25,15,01,8.20
2015,11,25,15,02,8.20
2015,11,25,15,03,8.20
2015,11,25,15,04,8.20
2015,11,25,15,05,8.20
2015,11,25,15,06,8.20
2015,11,25,15,07,8.30
2015,11,25,15,08,8.30
2015,11,25,15,09,8.30
2015,11,25,15,11,8.30
2015,11,25,15,12,8.30
2015,11,25,15,13,8.30
2015,11,25,15,14,8.30
2015,11,25,15,15,8.30
2015,11,25,15,16,8.30
2015,11,25,15,17,8.20
2015,11,25,15,18,8.20
2015,11,25,15,19,8.10
2015,11,25,15,20,8.10
2015,11,25,15,21,8.10
2015,11,25,15,22,8.00
2015,11,25,15,24,7.90
2015,11,25,15,25,7.90
2015,11,25,15,26,7.80
2015,11,25,15,27,7.80
2015,11,25,15,28,7.80
2015,11,25,15,29,7.80
2015,11,25,15,30,7.80
2015,11,25,15,31,7.80
2015,11,25,15,32,7.80
2015,11,25,15,33,7.80
2015,11,25,15,34,7.80
2015,11,25,15,35,7.90
2015,11,25,15,36,7.90
2015,11,25,15,38,7.90
2015,11,25,15,40,7.80
2015,11,25,15,41,7.80
2015,11,25,15,42,7.70
2015,11,25,15,43,7.60
2015,11,25,15,44,7.60
2015,11,25,15,45,7.50
2015,11,25,15,46,7.40
2015,11,25,15,47,7.30
2015,11,25,15,48,7.20
2015,11,25,15,49,7.20
2015,11,25,15,50,7.10
2015,11,25,15,51,7.10
2015,11,25,15,52,6.90
2015,11,25,15,53,6.90
2015,11,25,15,54,6.80
2015,11,25,15,55,6.80
2015,11,25,15,56,6.70
2015,11,25,15,59,6.60
2015,11,25,16,00,6.50
2015,11,25,16,01,6.50
2015,11,25,16,02,6.40
2015,11,25,16,03,6.30
2015,11,25,16,04,6.30
2015,11,25,16,05,6.20
2015,11,25,16,07,6.10
2015,11,25,16,08,6.00
2015,11,25,16,09,5.90
2015,11,25,16,10,5.90
2015,11,25,16,11,5.80
2015,11,25,16,12,5.80
2015,11,25,16,13,5.80
2015,11,25,16,14,5.80
2015,11,25,16,15,5.70
2015,11,25,16,16,5.70
2015,11,25,16,17,5.60
2015,11,25,16,18,5.60
2015,11,25,16,19,5.60
2015,11,25,16,20,5.50
2015,11,25,16,21,5.50
2015,11,25,16,22,5.40
2015,11,25,16,23,5.40
2015,11,25,16,24,5.30
2015,11,25,16,25,5.30
2015,11,25,16,26,5.30
2015,11,25,16,27,5.20
2015,11,25,16,28,5.20
2015,11,25,16,29,5.20
2015,11,25,16,30,5.20
2015,11,25,16,31,5.10
2015,11,25,16,32,5.10
2015,11,25,16,33,5.00
2015,11,25,16,34,5.00
2015,11,25,16,35,4.90
2015,11,25,16,36,4.90
2015,11,25,16,37,4.90
2015,11,25,16,38,4.80
2015,11,25,16,39,4.80
2015,11,25,16,40,4.70
2015,11,25,16,41,4.70
2015,11,25,16,42,4.70
2015,11,25,16,43,4.60
2015,11,25,16,44,4.50
2015,11,25,16,45,4.40
2015,11,25,16,46,4.40
2015,11,25,16,47,4.40
2015,11,25,16,48,4.30
2015,11,25,16,49,4.30
2015,11,25,16,50,4.20
2015,11,25,16,51,4.20
2015,11,25,16,52,4.20
2015,11,25,16,53,4.10
2015,11,25,16,54,4.10
2015,11,25,16,55,4.00
2015,11,25,16,56,3.90
2015,11,25,16,57,3.90
2015,11,25,16,58,3.80
2015,11,25,16,59,3.80
2015,11,25,17,00,3.80
2015,11,25,17,01,3.70
2015,11,25,17,02,3.70
2015,11,25,17,04,3.60
2015,11,25,17,05,3.60
2015,11,25,17,06,3.50
2015,11,25,17,07,3.50
2015,11,25,17,08,3.40
2015,11,25,17,09,3.30
2015,11,25,17,12,3.20
2015,11,25,17,13,3.20
2015,11,25,17,14,3.20
2015,11,25,17,15,3.10
2015,11,25,17,17,3.10
2015,11,25,17,18,3.10
2015,11,25,17,19,3.00
2015,11,25,17,20,2.90
2015,11,25,17,21,2.90
2015,11,25,17,22,2.90
2015,11,25,17,23,2.80
2015,11,25,17,24,2.80
2015,11,25,17,25,2.70
2015,11,25,17,26,2.70
2015,11,25,17,27,2.70
2015,11,25,17,28,2.60
2015,11,25,17,29,2.60
2015,11,25,17,30,2.50
2015,11,25,17,31,2.40
2015,11,25,17,32,2.40
2015,11,25,17,33,2.30
2015,11,25,17,34,2.30
2015,11,25,17,35,2.30
2015,11,25,17,36,2.20
2015,11,25,17,38,2.10
2015,11,25,17,39,2.10
2015,11,25,17,40,2.10
2015,11,25,17,42,2.00
2015,11,25,17,43,1.90
2015,11,25,17,44,1.90
2015,11,25,17,45,1.90
2015,11,25,17,46,1.80
2015,11,25,17,47,1.80
2015,11,25,17,48,1.80
2015,11,25,17,49,1.70
2015,11,25,17,50,1.70
2015,11,25,17,51,1.70
2015,11,25,17,52,1.60
2015,11,25,17,53,1.60
2015,11,25,17,54,1.50
2015,11,25,17,56,1.30
2015,11,25,17,57,1.30
2015,11,25,17,58,1.30
2015,11,25,17,59,1.20
2015,11,25,18,00,1.20
2015,11,25,18,01,1.20
2015,11,25,18,02,1.10
2015,11,25,18,03,1.10
2015,11,25,18,04,1.00
2015,11,25,18,05,0.90
2015,11,25,18,06,0.90
2015,11,25,18,07,0.90
2015,11,25,18,08,0.80
2015,11,25,18,09,0.80
2015,11,25,18,10,0.80
2015,11,25,18,11,0.80
2015,11,25,18,12,0.70
2015,11,25,18,13,0.70
2015,11,25,18,14,0.70
2015,11,25,18,16,0.70
2015,11,25,18,17,0.60
2015,11,25,18,18,0.60
2015,11,25,18,19,0.60
2015,11,25,18,20,0.60
2015,11,25,18,21,0.60
2015,11,25,18,22,0.50
2015,11,25,18,23,0.50
2015,11,25,18,24,0.40
2015,11,25,18,25,0.40
2015,11,25,18,26,0.40
2015,11,25,18,27,0.40
2015,11,25,18,28,0.40
2015,11,25,18,29,0.40
2015,11,25,18,30,0.30
2015,11,25,18,31,0.30
2015,11,25,18,32,0.30
2015,11,25,18,33,0.30
2015,11,25,18,36,0.30
2015,11,25,18,37,0.30
2015,11,25,18,38,0.20
2015,11,25,18,39,0.20
2015,11,25,18,40,0.20
2015,11,25,18,41,0.20
2015,11,25,18,42,0.10
2015,11,25,18,43,0.10
2015,11,25,18,44,0.10
2015,11,25,18,47,0.10
2015,11,25,18,48,0.10
2015,11,25,18,49,0.10
2015,11,25,18,50,0.10
2015,11,25,18,51,0.10
2015,11,25,18,52,0.10
2015,11,25,18,53,0.00
2015,11,25,18,54,0.00
2015,11,25,18,56,-0.10
2015,11,25,18,57,-0.10
2015,11,25,18,58,-0.10
2015,11,25,18,59,-0.10
2015,11,25,19,00,-0.10
2015,11,25,19,01,-0.20
2015,11,25,19,02,-0.20
2015,11,25,19,03,-0.20
2015,11,25,19,04,-0.30
2015,11,25,19,06,-0.30
2015,11,25,19,07,-0.30
2015,11,25,19,08,-0.30
2015,11,25,19,09,-0.30
2015,11,25,19,10,-0.40
2015,11,25,19,11,-0.40
2015,11,25,19,12,-0.40
2015,11,25,19,13,-0.40
2015,11,25,19,15,-0.40
2015,11,25,19,16,-0.40
2015,11,25,19,17,-0.50
2015,11,25,19,18,-0.50
2015,11,25,19,19,-0.60